Regional Weather Roundup
Issued by NWS

Home | Current Version | Previous Version | Graphics & Text | Print | Product List | Glossary On
Versions: 1 2 3 4 5 6 7 8 9 10 11 12 13 14 15 16 17 18 19 20 21 22 23 24 25 26 27 28 29 30 31 32 33 34 35 36 37 38 39 40 41 42 43 44 45 46 47 48 49 50
000
ASUS44 KMEG 071110
RWRTN
TENNESSEE HOURLY STATE WEATHER ROUNDUP
NATIONAL WEATHER SERVICE MEMPHIS TN
500 AM CST SUN FEB 07 2016

TNZ002-004-019-021-049-052-054-088>092-071200-
WEST TENNESSEE

CITY           SKY/WX    TMP DP  RH WIND       PRES   REMARKS
MEMPHIS INTL   CLEAR     31  22  69 CALM      30.23F
NWS MEMPHIS      N/A     28 N/A N/A MISG        N/A
JACKSON        CLEAR     23  20  88 CALM      30.22F
DYERSBURG      CLEAR     28  27  93 CALM      30.24S
UNION CITY     CLEAR     25  23  93 CALM      30.19F
PARIS          CLEAR     30  19  64 SW5       30.20F WCI  25
LEXINGTON      CLEAR     23  21  93 CALM      30.21R
$$

TNZ008-025-027-028-033-062-065-066-071200-
NORTH MIDDLE TENNESSEE

CITY           SKY/WX    TMP DP  RH WIND       PRES   REMARKS
NASHVILLE      CLEAR     28  23  81 S3        30.21S
CLARKSVILLE    CLEAR     27  25  92 CALM      30.20S
SMYRNA         PTCLDY    24  23  96 CALM      30.22S
COOKEVILLE     CLEAR     21  19  93 CALM      30.17F
CROSSVILLE     CLEAR     27  21  78 CALM      30.16S
$$

TNZ061-075-076-078-094-096-097-071200-
SOUTH MIDDLE TENNESSEE

CITY           SKY/WX    TMP DP  RH WIND       PRES   REMARKS
FAYETTEVILLE   PTCLDY    30  25  80 CALM      30.20R
TULLAHOMA      CLEAR     25  21  86 CALM      30.20R
WINCHESTER     CLEAR     23  21  93 CALM      30.20R
MCMINNVILLE    CLEAR     25  25 100 CALM      30.19S
COLUMBIA       CLEAR     27  27 100 CALM      30.20R
SHELBYVILLE    CLEAR     25  25 100 E3        30.21S
$$

TNZ017-018-042-046-047-071200-
NORTHEAST TENNESSEE

CITY           SKY/WX    TMP DP  RH WIND       PRES   REMARKS
TRI CITIES     CLOUDY    22  19  89 SE3       30.18F
$$

TNZ012-013-036-069-073-074-071200-
CENTRAL EAST TENNESSEE

CITY           SKY/WX    TMP DP  RH WIND       PRES   REMARKS
KNOXVILLE      PTCLDY    28  21  75 CALM      30.19R
OAK RIDGE      CLEAR     28  24  85 CALM      30.20R
GATLINBURG       N/A     19  18  93 CALM      30.19R
MORRISTOWN     PTSUNNY   27  21  80 CALM      30.17S
$$

TNZ083-085-099-071200-
SOUTHEAST TENNESSEE

CITY           SKY/WX    TMP DP  RH WIND       PRES   REMARKS
CHATTANOOGA    CLEAR     29  24  82 CALM      30.20R
$$

SKY/WX REPORTED AS FAIR MEANS FEW OR NO CLOUDS BELOW
12 THOUSAND FEET.




USA.gov is the U.S. government's official web portal to all federal, state and local government web resources and services.